Regional Weather Roundup
Issued by NWS Charleston, SC

Current Version | Previous Version | Text Only | Print | Product List | Glossary Off
Versions: 1 2 3 4 5 6 7 8 9 10 11 12 13 14 15 16 17 18 19 20 21 22 23 24 25 26 27 28 29 30 31 32 33 34 35 36 37 38 39 40 41 42 43 44 45 46 47 48 49 50
000 ASUS42 KCHS 160125 RWRCHS REGIONAL WEATHER ROUNDUP NATIONAL WEATHER SERVICE CHARLESTON SC 900 PM EDT MON SEP 15 2014 NOTE: "FAIR" INDICATES FEW OR NO CLOUDS BELOW 12,000 FEET WITH NO SIGNIFICANT WEATHER AND/OR OBSTRUCTIONS TO VISIBILITY. NOT ALL STATIONS ARE QUALITY CONTROLLED BY THE NATIONAL WEATHER SERVICE. USE DATA WITH CAUTION...ESPECIALLY DEWPOINT OBSERVATIONS. SCZ027-030-031-034>040-042>050-160200- ...SOUTH CAROLINA... CITY SKY/WX TMP DP RH WIND PRES REMARKS N CHARLESTON MOCLDY 77 74 90 N3 30.13R WATERFRONT PRK N/A 81 N/A N/A NE3 N/A FORT JOHNSON NOT AVBL MOUNT PLEASANT FAIR 75 75 100 CALM 30.13S FOG JOHNS ISLAND MOCLDY 75 75 100 CALM 30.13S PINOPOLIS NOT AVBL MONCKS CORNER NOT AVBL SUMMERVILLE DRIZZLE 73 73 100 CALM 30.15R BEAUFORT MCAS MOCLDY 77 72 84 CALM 30.14R BEAUFORT ARPT CLOUDY 77 75 94 CALM 30.13R HILTON HEAD IS MOCLDY 79 77 94 CALM 30.15R FOG GEORGETOWN NOT AVBL WALTERBORO MOCLDY 75 N/A N/A CALM 30.15R ORANGEBURG LGT RAIN 76 71 85 NE3 30.14R BARNWELL CLOUDY 75 73 94 NE3 30.15R AIKEN CLOUDY 73 73 100 SE5 30.18R MANNING CLOUDY 77 N/A N/A CALM 30.14R KINGSTREE NOT AVBL COLUMBIA CLOUDY 75 70 84 E3 30.14R SUMTER CLOUDY 75 70 83 E2 30.13S FLORENCE CLOUDY 74 70 87 E3 30.14R MYRTLE BEACH PTCLDY 75 70 83 N7 30.13R N MYRTLE BEACH PTCLDY 72 69 90 N5 30.13R $$ GAZ063-065-086>088-099>101-113>116-118-119-134-136>141-150-160200- ...GEORGIA... CITY SKY/WX TMP DP RH WIND PRES REMARKS SAVANNAH ARPT MOCLDY 77 73 87 CALM 30.14R HUNTER AAF MOCLDY 77 77 100 NE2 30.12R FORT STEWART CLOUDY 76 74 95 CALM 30.12R STATESBORO NOT AVBL SYLVANIA CLEAR 75 74 97 CALM 30.16R CLAXTON NOT AVBL THOMSON MOCLDY 74 74 100 CALM 30.19R AUGUSTA-BUSH CLOUDY 73 72 96 SE3 30.13R AUGUSTA-DANIEL MOCLDY 75 72 90 E3 30.15R SWAINSBORO MOCLDY 79 79 100 CALM 30.15R VIDALIA CLOUDY 77 73 88 E3 30.15R ALMA CLOUDY 75 71 87 CALM 30.12F WAYCROSS LGT RAIN 77 76 98 CALM 30.13S JESUP N/A 79 77 94 CALM 30.13S BRUNSWICK CLOUDY 77 72 83 W7 30.14R SAINT SIMONS CLOUDY 80 74 81 SW13G18 30.13R $$ SCZ027-028-034-036>038-045-046-048>050-GAZ119-141-160200- ...LAKE AND SUPPLEMENTAL COASTAL OBSERVATIONS... STATION/POSITION TIME TEMP WIND PRES WAVE SWELL AIR SEA DIR/SP/G HT/PER HT/PER/DIR (UTC) (F) (DEG/KT/KT) (MB) (FT/S) (FT/S/D) UPR LAKE MARION NOT AVBL WINYAH BAY 0100 78 300/ 1 1020.0S LAKE MURRAY 0100 74 140/ 5/ 6 1020.0S ACE BASIN NERRS 0100 74 CALM 1020.0S FORT PULASKI 0100 79 340/ 1/ 2 1020.5S SAPELO ISLAND 0100 80 150/ 1 1020.0S $$ ANZ835-935-AMZ111-154-330-350-352-354-374-450-454-472-160200- ...C-MAN AND BUOY OBSERVATIONS... STATION/POSITION TIME TEMP WIND PRES WAVE SWELL AIR SEA DIR/SP/G HT/PER HT/PER/DIR (UTC) (F) (DEG/KT/KT) (MB) (FT/S) (FT/S/D) FOLLY BEACH CMAN 0100 80 120/ 5/ 7 1020.7R BUOY 41004 0100 80 83 110/ 4/ 6 1019.6R 2/ 5 2/ 5 BUOY 41008 0100 83 84 110/ 6/ 10 1019.7R 2/ 6 2/ 60/ 6 5E ST. MARYS GA 0100 84 N/A 2/ 2 FRYING PAN BUOY NOT AVBL BUOY 41025 0100 73 360/ 8/ 12 1019.9R 3/ 8 3/ 40/ 8 CAPE LOOKOUT NC 0100 75 50/ 6/ 7 1019.9R BUOY 41002 NOT AVBL BUOY 41010 0100 83 86 170/ 2/ 4 1020.2R 2/ 8 2/110/ 8 BUOY 41012 NOT AVBL ST AUGUSTINE FL 0100 78 CALM / 1 1020.6R CAPERS NEARSHORE 0000 78 120/ 8/ 10 N/A FRIPP NEARSHORE NOT AVBL $$

USA.gov is the U.S. government's official web portal to all federal, state and local government web resources and services.